GW4881 Weather Reports


time (UTC)temp
C
wind
direction
speed
KPH
gust
KPH
rain 1hr
cm
rain 24hr
cm
rain mn
cm
humidity
%
barometer
mb
20260504222803 25 66 0.0 1.6 0.00 0.00 0.00 69 1014.0
20260504222305 25 32 0.0 3.2 0.00 0.00 0.00 69 1014.0
20260504221801 25 203 0.0 3.2 0.00 0.00 0.00 69 1014.0
20260504221303 25 30 0.0 0.0 0.00 0.00 0.00 69 1013.0
20260504220802 25 190 1.6 4.8 0.00 0.00 0.00 69 1013.0
20260504220304 25 203 0.0 1.6 0.00 0.00 0.00 70 1013.0
20260504215803 25 235 1.6 3.2 0.00 0.00 0.00 69 1013.0
20260504215311 25 228 1.6 3.2 0.00 0.00 0.00 69 1013.0
20260504214802 25 42 0.0 1.6 0.00 0.00 0.00 68 1013.0
20260504214305 25 238 3.2 6.4 0.00 0.00 0.00 68 1013.0
20260504213802 25 253 1.6 4.8 0.00 0.00 0.00 68 1013.0
20260504213304 25 192 1.6 3.2 0.00 0.00 0.00 68 1013.0
20260504212805 25 212 1.6 4.8 0.00 0.00 0.00 68 1013.0
20260504212304 25 258 1.6 3.2 0.00 0.00 0.00 68 1013.0
20260504211803 25 233 3.2 3.2 0.00 0.00 0.00 67 1014.0
20260504211304 25 239 3.2 6.4 0.00 0.00 0.00 67 1014.0
20260504210802 25 224 0.0 3.2 0.00 0.00 0.00 67 1014.0
20260504210303 25 165 0.0 1.6 0.00 0.00 0.00 67 1014.0
20260504205802 25 139 0.0 3.2 0.00 0.00 0.00 67 1013.0
20260504205305 25 235 3.2 4.8 0.00 0.00 0.00 67 1013.0
20260504204806 25 63 1.6 1.6 0.00 0.00 0.00 67 1014.0
20260504204302 25 252 3.2 6.4 0.00 0.00 0.00 67 1013.0
20260504203802 25 233 3.2 6.4 0.00 0.00 0.00 67 1013.0
20260504203303 25 45 0.0 3.2 0.00 0.00 0.00 67 1013.0
20260504202806 25 52 0.0 1.6 0.00 0.00 0.00 67 1013.0
20260504202304 25 234 3.2 4.8 0.00 0.00 0.00 67 1013.0
20260504201804 25 228 1.6 3.2 0.00 0.00 0.00 67 1013.0
20260504201303 25 191 0.0 3.2 0.00 0.00 0.00 67 1013.0
20260504200805 25 245 1.6 4.8 0.00 0.00 0.00 67 1013.0
20260504200304 25 243 1.6 3.2 0.00 0.00 0.00 67 1013.0
20260504195806 25 242 4.8 8.0 0.00 0.00 0.00 67 1013.0
20260504195304 25 222 1.6 4.8 0.00 0.00 0.00 67 1013.0
20260504194804 25 227 3.2 6.4 0.00 0.00 0.00 67 1013.0
20260504194306 25 183 1.6 3.2 0.00 0.00 0.00 67 1013.0
20260504193803 25 228 3.2 6.4 0.00 0.00 0.00 67 1013.0
20260504193302 25 227 1.6 3.2 0.00 0.00 0.00 67 1013.0
20260504192804 25 164 1.6 3.2 0.00 0.00 0.00 67 1013.0
20260504192304 25 232 4.8 9.7 0.00 0.00 0.00 67 1013.0
20260504191802 25 237 3.2 6.4 0.00 0.00 0.00 67 1013.0
20260504191303 26 203 3.2 6.4 0.00 0.00 0.00 66 1013.0
20260504190804 26 218 4.8 6.4 0.00 0.00 0.00 65 1013.0
20260504190306 26 213 3.2 6.4 0.00 0.00 0.00 65 1013.0
20260504185803 26 242 1.6 3.2 0.00 0.00 0.00 64 1013.0
20260504185304 26 238 3.2 8.0 0.00 0.00 0.00 64 1013.0
20260504184803 26 250 1.6 3.2 0.00 0.00 0.00 64 1013.0
20260504184304 26 313 0.0 3.2 0.00 0.00 0.00 64 1014.0
20260504183804 26 172 0.0 1.6 0.00 0.00 0.00 65 1014.0
20260504183304 26 230 4.8 8.0 0.00 0.00 0.00 64 1014.0
20260504182806 26 216 3.2 8.0 0.00 0.00 0.00 63 1014.0
20260504182304 26 330 0.0 3.2 0.00 0.00 0.00 64 1014.0
20260504181803 26 240 3.2 3.2 0.00 0.00 0.00 63 1014.0
20260504181306 26 249 3.2 4.8 0.00 0.00 0.00 63 1014.0
20260504180804 26 227 1.6 3.2 0.00 0.00 0.00 64 1014.0
20260504180303 26 70 0.0 3.2 0.00 0.00 0.00 64 1014.0
20260504175803 26 342 1.6 1.6 0.00 0.00 0.00 64 1014.0
20260504175305 26 219 0.0 3.2 0.00 0.00 0.00 65 1014.0
20260504174806 26 97 0.0 3.2 0.00 0.00 0.00 65 1014.0
20260504174307 26 87 3.2 6.4 0.00 0.00 0.00 65 1014.0
20260504173803 26 55 0.0 3.2 0.00 0.00 0.00 64 1014.0
20260504173304 26 355 1.6 4.8 0.00 0.00 0.00 65 1014.0
20260504172804 26 94 1.6 6.4 0.00 0.00 0.00 65 1014.0
20260504172304 26 30 1.6 4.8 0.00 0.00 0.00 65 1014.0
20260504171803 26 112 0.0 1.6 0.00 0.00 0.00 66 1014.0
20260504171304 26 76 3.2 6.4 0.00 0.00 0.00 65 1014.0
20260504170804 26 53 3.2 6.4 0.00 0.00 0.00 66 1014.0
20260504170304 26 101 1.6 6.4 0.00 0.00 0.00 66 1014.0
20260504160306 26 60 1.6 4.8 0.00 0.00 0.00 64 1014.0
20260504150804 26 328 3.2 4.8 0.00 0.00 0.00 63 1013.0
20260504150305 27 333 1.6 3.2 0.00 0.00 0.00 64 1013.0
20260504141305 27 245 3.2 4.8 0.00 0.00 0.00 64 1013.0
20260504140804 27 303 1.6 4.8 0.00 0.00 0.00 65 1013.0
20260504140302 27 297 0.0 3.2 0.00 0.00 0.00 65 1013.0
20260504130804 28 208 4.8 9.7 0.00 0.00 0.00 60 1012.0
20260504130303 29 289 3.2 6.4 0.00 0.00 0.00 58 1012.0
20260504120305 33 283 3.2 8.0 0.00 0.00 0.00 47 1010.0
20260504110304 33 6 3.2 6.4 0.00 0.00 0.00 49 1010.0
20260504100305 33 74 3.2 4.8 0.00 0.00 0.00 49 1010.0
20260504081804 32 9 8.0 14.5 0.00 0.00 0.00 53 1012.0
20260504081305 32 72 3.2 6.4 0.00 0.00 0.00 53 1012.0
20260504080810 32 192 3.2 6.4 0.00 0.00 0.00 51 1012.0
20260504080304 32 33 4.8 11.3 0.00 0.00 0.00 52 1012.0
20260504070317 31 293 6.4 11.3 0.00 0.00 0.00 57 1014.0
20260504050303 28 301 4.8 9.7 0.00 0.00 0.00 72 1015.0
20260504045803 28 296 3.2 6.4 0.00 0.00 0.00 72 1015.0
20260504045301 28 304 3.2 6.4 0.00 0.00 0.00 71 1015.0
20260504044802 28 283 3.2 8.0 0.00 0.00 0.00 71 1015.0
20260504044301 28 280 3.2 6.4 0.00 0.00 0.00 73 1015.0
20260504043802 28 291 6.4 9.7 0.00 0.00 0.00 73 1015.0
20260504043307 27 288 3.2 6.4 0.00 0.00 0.00 75 1015.0
20260504042801 27 271 3.2 4.8 0.00 0.00 0.00 75 1015.0
20260504042304 27 282 3.2 8.0 0.00 0.00 0.00 74 1015.0
20260504041804 27 312 1.6 4.8 0.00 0.00 0.00 76 1015.0
20260504041302 27 349 3.2 4.8 0.00 0.00 0.00 76 1015.0
20260504040801 27 318 3.2 4.8 0.00 0.00 0.00 78 1015.0
20260504040301 27 325 6.4 9.7 0.00 0.00 0.00 77 1015.0
20260504035802 27 221 3.2 8.0 0.00 0.00 0.00 78 1015.0
20260504035304 27 304 3.2 4.8 0.00 0.00 0.00 80 1015.0
20260504034801 27 285 3.2 6.4 0.00 0.00 0.00 79 1015.0
20260504034301 26 300 6.4 9.7 0.00 0.00 0.00 80 1015.0
20260504033802 26 314 4.8 9.7 0.00 0.00 0.00 81 1015.0
20260504033302 26 298 3.2 6.4 0.00 0.00 0.00 83 1015.0
20260504032803 26 302 9.7 14.5 0.00 0.00 0.00 82 1015.0
20260504032303 26 318 1.6 3.2 0.00 0.00 0.00 83 1015.0
20260504031802 26 307 3.2 6.4 0.00 0.00 0.00 82 1015.0
20260504031303 26 307 4.8 9.7 0.00 0.00 0.00 82 1015.0
20260504030802 26 299 1.6 3.2 0.00 0.00 0.00 82 1015.0
20260504030302 26 302 1.6 4.8 0.00 0.00 0.00 82 1015.0
20260504025801 25 310 4.8 8.0 0.00 0.00 0.00 81 1015.0
20260504025304 25 202 1.6 4.8 0.00 0.00 0.00 80 1015.0
20260504024804 25 319 3.2 4.8 0.00 0.00 0.00 80 1015.0
20260504024302 25 245 3.2 4.8 0.00 0.00 0.00 81 1014.0
20260504023802 25 285 3.2 4.8 0.00 0.00 0.00 82 1014.0
20260504023303 24 211 1.6 3.2 0.00 0.00 0.00 82 1014.0
20260504022802 24 222 1.6 3.2 0.00 0.00 0.00 82 1014.0
20260504022304 23 277 1.6 3.2 0.00 0.00 0.00 83 1014.0
20260504021801 23 184 3.2 6.4 0.00 0.00 0.00 84 1014.0
20260504021301 23 196 3.2 4.8 0.00 0.00 0.00 84 1014.0
20260504020802 23 23 1.6 3.2 0.00 0.00 0.00 86 1014.0
20260504020302 23 283 1.6 3.2 0.00 0.00 0.00 85 1014.0
20260504015801 22 223 3.2 6.4 0.00 0.00 0.00 85 1014.0
20260504015301 22 235 3.2 4.8 0.00 0.00 0.00 86 1014.0
20260504014807 22 234 1.6 4.8 0.00 0.00 0.00 88 1014.0
20260504014301 22 259 0.0 3.2 0.00 0.00 0.00 89 1014.0
20260504013802 22 219 4.8 6.4 0.00 0.00 0.00 90 1014.0
20260504013302 21 272 1.6 3.2 0.00 0.00 0.00 90 1014.0
20260504012802 21 236 3.2 6.4 0.00 0.00 0.00 90 1014.0
20260504012303 22 255 3.2 6.4 0.00 0.00 0.00 90 1014.0
20260504011801 22 245 1.6 3.2 0.00 0.00 0.00 90 1014.0
20260504011301 21 251 3.2 8.0 0.00 0.00 0.00 90 1014.0
20260504010802 21 260 1.6 3.2 0.00 0.00 0.00 90 1014.0
20260504010302 21 302 1.6 3.2 0.00 0.00 0.00 91 1014.0
20260504005801 21 243 0.0 1.6 0.00 0.00 0.00 91 1014.0
20260504005301 21 77 0.0 1.6 0.00 0.00 0.00 91 1014.0
20260504004803 21 256 1.6 4.8 0.00 0.00 0.00 92 1014.0
20260504004301 21 277 1.6 3.2 0.00 0.00 0.00 92 1014.0
20260504003801 21 246 3.2 4.8 0.00 0.00 0.00 93 1014.0
20260504003301 21 202 0.0 1.6 0.00 0.00 0.00 93 1014.0
20260504002802 21 263 3.2 4.8 0.00 0.00 0.00 92 1014.0
20260504002301 21 193 0.0 3.2 0.00 0.00 0.00 92 1014.0
20260504001802 21 56 3.2 3.2 0.00 0.00 0.00 91 1014.0
20260504001302 21 178 1.6 3.2 0.00 0.00 0.00 90 1014.0
20260504000802 21 67 1.6 3.2 0.00 0.00 0.00 89 1014.0
20260504000302 21 69 3.2 9.7 0.00 0.00 0.00 88 1014.0
20260503235801 21 174 1.6 3.2 0.00 0.00 0.00 88 1014.0
20260503235301 21 65 1.6 3.2 0.00 0.00 0.00 89 1014.0
20260503234802 21 294 3.2 4.8 0.00 0.00 0.00 89 1014.0
20260503234302 22 104 6.4 11.3 0.00 0.00 0.00 88 1014.0
20260503233801 24 76 6.4 12.9 0.00 0.00 0.00 83 1014.0
20260503233301 25 27 4.8 14.5 0.00 0.00 0.00 86 1014.0
20260503232801 25 109 0.0 3.2 0.00 0.00 0.00 86 1014.0
20260503232301 25 277 0.0 1.6 0.00 0.00 0.00 86 1013.0
20260503231801 25 229 3.2 6.4 0.00 0.00 0.00 86 1013.0
20260503231302 25 261 1.6 4.8 0.00 0.00 0.00 86 1013.0
20260503230801 25 193 3.2 4.8 0.00 0.00 0.00 86 1013.0
20260503230301 25 267 1.6 3.2 0.00 0.00 0.00 86 1013.0
20260503225802 25 228 1.6 4.8 0.00 0.00 0.00 86 1013.0
20260503225304 25 235 4.8 8.0 0.00 0.00 0.00 85 1013.0
20260503224801 25 233 0.0 1.6 0.00 0.00 0.00 86 1013.0
20260503224301 25 202 1.6 3.2 0.00 0.00 0.00 86 1013.0
20260503223802 25 245 3.2 4.8 0.00 0.00 0.00 86 1013.0
20260503223301 25 256 1.6 3.2 0.00 0.00 0.00 86 1013.0